Asheville, NC

1:32 PM EST on December 09, 2019 (GMT -0500)
Asheville Regional

Weather History for KAVL - September, 2019

Change the Weather History Date:

Thursday, September 19, 2019

  Actual Average Record
Temperature  
Mean Temperature 63 °F 65 °F  
Max Temperature 66 °F 76 °F 91 °F (1925)
Min Temperature 60 °F 55 °F 36 °F (1903)
Degree Days  
Heating Degree Days 2 2  
Month to date heating degree days 2 15  
Since 1 July heating degree days 2 17  
Cooling Degree Days 0 2  
Month to date cooling degree days 185 78  
Year to date cooling degree days 1191 835  
Growing Degree Days 14 (Base 50)    
Moisture  
Dew Point 54 °F    
Average Humidity 72    
Maximum Humidity 87    
Minimum Humidity 56    
Precipitation  
Precipitation T in 0.12 in 2.14 in (1977)
Month to date precipitation 0.40 2.50  
Year to date precipitation 42.11 34.11  
Snow  
Snow 0.00 in 0.00 in 0.00 in ()
Month to date snowfall 0.0 0.0  
Since 1 July snowfall 0.0 0.0  
Since 1 September snowfall 0.0 0.0  
Snow Depth 0.00 in    
Sea Level Pressure  
Sea Level Pressure 30.25 in    
Wind  
Wind Speed 4 mph (SSE)    
Max Wind Speed 12 mph    
Max Gust Speed 14 mph    
Visibility 10 miles    
Events Rain    
T = Trace of Precipitation, MM = Missing Value Source: NWS Daily Summary

Daily Weather History Graph

Daily Weather History Graph

Search for Another Location

Airport or City:

Astronomy

Sep. 19, 2019 Rise Set
Actual Time 7:15 AM EDT 7:31 PM EDT
Civil Twilight 6:50 AM EDT 7:57 PM EDT
Nautical Twilight 6:20 AM EDT 8:26 PM EDT
Astronomical Twilight 5:50 AM EDT 8:56 PM EDT
Moon 10:50 PM EDT (9/19) 12:07 PM EDT (9/19)
Length of Visible Light 13h 06m
Length of Day
12h 15m
Waning Gibbous, 74% of the Moon is Illuminated
Sep 19
Waning Gibbous
Sep 21
Last Quarter
Sep 28
New
Oct 5
First Quarter
Oct 13
Full

Hourly Weather History & Observations

Time (EDT) Temp. Dew Point Humidity Pressure Visibility Wind Dir Wind Speed Gust Speed Precip Events Conditions
12:54 AM 64.9 °F 59.0 °F 81% 30.18 in 10.0 mi South 3.5 mph - N/A   Overcast
1:54 AM 64.9 °F 59.0 °F 81% 30.19 in 10.0 mi South 3.5 mph - N/A   Overcast
2:54 AM 64.9 °F 60.1 °F 84% 30.18 in 10.0 mi SSE 3.5 mph - N/A   Overcast
3:54 AM 64.9 °F 59.0 °F 81% 30.19 in 10.0 mi SSE 6.9 mph - N/A   Overcast
4:18 AM 64.0 °F 57.9 °F 80% 30.25 in 9.0 mi SE 5.8 mph - N/A   Overcast
4:38 AM 62.1 °F 57.9 °F 86% 30.25 in 4.0 mi SSE 11.5 mph - 0.00 in Rain Light Rain
4:54 AM 62.1 °F 57.9 °F 86% 30.20 in 7.0 mi ESE 5.8 mph - 0.00 in Rain Light Rain
5:54 AM 62.1 °F 57.9 °F 86% 30.21 in 10.0 mi Calm Calm - 0.00 in   Overcast
6:20 AM 63.0 °F 55.9 °F 78% 30.27 in 10.0 mi SE 3.5 mph - N/A   Overcast
6:54 AM 62.1 °F 55.9 °F 80% 30.23 in 10.0 mi SSE 5.8 mph - N/A   Overcast
7:18 AM 62.1 °F 55.9 °F 80% 30.29 in 10.0 mi SSE 3.5 mph - N/A   Overcast
7:27 AM 62.1 °F 55.9 °F 80% 30.29 in 10.0 mi SSE 3.5 mph - N/A   Overcast
7:54 AM 62.1 °F 53.1 °F 72% 30.25 in 10.0 mi ESE 3.5 mph - N/A   Overcast
8:54 AM 61.0 °F 52.0 °F 72% 30.26 in 10.0 mi SE 6.9 mph - N/A   Overcast
9:54 AM 61.0 °F 52.0 °F 72% 30.28 in 10.0 mi SE 4.6 mph - N/A   Overcast
10:54 AM 62.1 °F 53.1 °F 72% 30.28 in 10.0 mi Variable 5.8 mph - N/A   Overcast
11:54 AM 64.0 °F 52.0 °F 65% 30.27 in 10.0 mi South 6.9 mph - N/A   Overcast
12:54 PM 64.9 °F 52.0 °F 63% 30.27 in 10.0 mi SSE 5.8 mph - N/A   Overcast
1:54 PM 64.9 °F 51.1 °F 61% 30.26 in 10.0 mi Variable 6.9 mph - N/A   Overcast
2:54 PM 66.0 °F 51.1 °F 59% 30.25 in 10.0 mi SSE 6.9 mph - N/A   Overcast
3:54 PM 66.0 °F 50.0 °F 56% 30.24 in 10.0 mi ESE 5.8 mph - N/A   Overcast
4:54 PM 66.0 °F 52.0 °F 60% 30.23 in 10.0 mi Variable 5.8 mph - N/A   Overcast
5:16 PM 66.0 °F 52.0 °F 60% 30.28 in 10.0 mi Variable 3.5 mph - N/A   Overcast
5:37 PM 66.0 °F 52.0 °F 60% 30.28 in 10.0 mi South 5.8 mph - N/A   Overcast
5:54 PM 66.0 °F 52.0 °F 60% 30.23 in 10.0 mi South 4.6 mph - N/A   Overcast
6:15 PM 66.0 °F 52.0 °F 60% 30.28 in 10.0 mi South 6.9 mph - N/A   Overcast
6:29 PM 66.0 °F 52.0 °F 60% 30.28 in 10.0 mi South 5.8 mph - N/A   Overcast
6:54 PM 64.9 °F 53.1 °F 65% 30.22 in 10.0 mi SE 6.9 mph - N/A   Overcast
7:01 PM 64.9 °F 53.1 °F 65% 30.27 in 10.0 mi SSE 4.6 mph - N/A   Overcast
7:28 PM 64.0 °F 53.1 °F 67% 30.28 in 10.0 mi SE 5.8 mph - N/A   Overcast
7:54 PM 63.0 °F 53.1 °F 70% 30.24 in 10.0 mi Calm Calm - N/A   Overcast
8:54 PM 62.1 °F 53.1 °F 72% 30.25 in 10.0 mi Calm Calm - N/A   Overcast
9:54 PM 62.1 °F 54.0 °F 75% 30.27 in 10.0 mi WSW 3.5 mph - N/A   Overcast
10:10 PM 61.0 °F 54.0 °F 78% 30.31 in 10.0 mi Calm Calm - N/A   Overcast
10:54 PM 62.1 °F 54.0 °F 75% 30.28 in 10.0 mi Calm Calm - N/A   Overcast
11:21 PM 62.1 °F 54.0 °F 75% 30.32 in 10.0 mi Calm Calm - N/A   Overcast
11:54 PM 61.0 °F 53.1 °F 75% 30.28 in 10.0 mi Calm Calm - N/A   Overcast